Flag for Germany Weather past 2 weeks in Munich, Bavaria, Germany

Now
64 °F

Fog.


Feels Like: 64 °F
Forecast: 61 / 72 °F
Wind: 1 mph from North

Location: Munich / Franz Josef Strauss Airport

Current Time: Jul 7, 2015 at 3:13:34 AM

Latest Report: Jul 7, 2015 at 2:50 AM


Visibility: 5 mi

Pressure: 30.09 "Hg (28.29 "Hg at 526m altitude)

Humidity: 94%

Dew point: 63 °F

Location of MunichLocation

Historic Weather in Munich — Graph

°F

Munich temperature yesterday

Maximum temperature yesterday: 84 °F (at 4:20 PM)
Minimum temperature yesterday: 66 °F (at 1:20 AM)
Average temperature yesterday: 76 °F

Past Weeks' High & Low Weather Summary

 TemperatureHumidityPressure
High91 °F (Jul 5, 1:50 PM)100% (Jun 23, 12:50 AM)30.30 "Hg (Jun 23, 12:50 AM)
Low43 °F (Jun 25, 5:20 AM)32% (Jul 5, 2:50 PM)29.74 "Hg (Jun 22, 10:50 PM)
Average67 °F71%30.14 "Hg
* Reported Jun 22 1:20 AM — Jul 7 1:50 AM, Munich, Weather by CustomWeather, © 2015

Note: Actual official high and low records may vary slightly from our data, if they occured in-between our weather recording intervals... More about our weather records

Advertising

Munich weather history for previous 24 hours

 ConditionsComfort  
Time TempWeatherWind HumidityBarometerVisibility
1:50 AM
Tue, Jul 7
64 °FClear.2 mph94%30.09 "Hg10 mi
1:20 AM66 °FClear.3 mph88%30.09 "Hg10 mi
12:50 AM66 °FClear.1 mph88%30.09 "Hg10 mi
12:20 AM66 °FClear.2 mph88%30.12 "Hg10 mi
11:50 PM
Mon, Jul 6
68 °FClear.1 mph88%30.12 "Hg10 mi
11:20 PM68 °FClear.1 mph83%30.12 "Hg10 mi
10:50 PM70 °FClear.2 mph83%30.12 "Hg10 mi
10:20 PM72 °FPassing clouds.3 mph78%30.12 "HgN/A
9:50 PM72 °FSunny.3 mph78%30.12 "Hg10 mi
9:20 PM77 °FSunny.2 mph65%30.12 "Hg10 mi
8:50 PM79 °FSunny.2 mph61%30.12 "Hg10 mi
8:20 PM79 °FSunny.2 mph61%30.12 "Hg10 mi
7:50 PM82 °FPassing clouds.3 mph48%30.12 "HgN/A
7:20 PM82 °FPassing clouds.3 mph51%30.12 "HgN/A
6:50 PM82 °FPassing clouds.3 mph55%30.12 "HgN/A
6:20 PM82 °FPassing clouds.3 mph51%30.12 "HgN/A
5:50 PM82 °FPassing clouds.5 mph55%30.12 "HgN/A
5:20 PM84 °FPassing clouds.5 mph48%30.12 "HgN/A
4:50 PM82 °FPassing clouds.6 mph55%30.15 "HgN/A
4:20 PM84 °FScattered clouds.5 mph55%30.15 "HgN/A
3:50 PM82 °FScattered clouds.7 mph55%30.15 "HgN/A
3:20 PM82 °FScattered clouds.8 mph51%30.15 "HgN/A
2:50 PM82 °FScattered clouds.6 mph55%30.15 "HgN/A
2:20 PM82 °FScattered clouds.7 mph55%30.15 "HgN/A
1:50 PM82 °FScattered clouds.7 mph58%30.18 "HgN/A
1:20 PM81 °FScattered clouds.7 mph58%30.18 "HgN/A
12:50 PM79 °FScattered clouds.7 mph65%30.18 "HgN/A
12:20 PM79 °FScattered clouds.6 mph65%30.18 "HgN/A
11:50 AM79 °FScattered clouds.7 mph65%30.18 "HgN/A
11:20 AM79 °FPartly sunny.10 mph70%30.21 "HgN/A
10:50 AM77 °FPartly sunny.8 mph74%30.21 "HgN/A
10:20 AM75 °FBroken clouds.8 mph74%30.21 "HgN/A
9:50 AM73 °FBroken clouds.9 mph78%30.21 "HgN/A
9:20 AM73 °FBroken clouds.10 mph83%30.21 "HgN/A
8:50 AM73 °FPartly sunny.13 mph83%30.21 "HgN/A
8:20 AM72 °FBroken clouds.15 mph88%30.21 "HgN/A
7:50 AM72 °FSunny.12 mph88%30.21 "Hg10 mi
7:20 AM70 °FSunny.12 mph88%30.18 "Hg10 mi
6:50 AM70 °FScattered showers. Broken clouds.14 mph88%30.18 "HgN/A
6:20 AM70 °FScattered showers. Broken clouds.9 mph88%30.15 "HgN/A
5:20 AM70 °FSprinkles. Partly cloudy.8 mph88%30.12 "HgN/A
4:50 AM73 °FThunderstorms. Partly cloudy.12 mph78%30.12 "HgN/A
4:20 AM73 °FThunderstorms. Partly cloudy.10 mph74%30.09 "HgN/A
3:50 AM72 °FClear.9 mph78%30.07 "Hg10 mi
3:20 AM75 °FClear.8 mph69%30.07 "Hg10 mi
Weather by CustomWeather, © 2015

See weather overviewHow to use our weather pages